Location: Berlin
(38.3226°N, 75.2177°W)
Time: 17:13:23
(UTC+00:00)

H-2A R/B - Pass Details

Date: 26 October 2020
Orbit: 733 x 837 km, 98.2° (Epoch: 03 December)

Event Time Altitude Azimuth Distance (km) Brightness Sun altitude
Exits shadow 01:03:03 10° 207° (SSW) 2,442 4.7 -34.7°
Reaches altitude 10° 01:03:09 10° 208° (SSW) 2,409 4.7 -34.7°
Maximum altitude 01:07:38 27° 265° (W) 1,542 4.0 -35.6°
Drops below altitude 10° 01:12:13 10° 323° (NW) 2,453 5.1 -36.4°
Sets 01:14:58 0° 335° (NNW) 3,395 5.8 -37.0°
